Location: Central Falls
(41.8900°N, 71.3929°W)
Time: 07:19:29
(UTC+00:00)

Altair - Pass Details

Date: 09 December 2023
Orbit: 1501 x 1682 km, 47.2° (Epoch: 29 February)

Event Time Altitude Azimuth Distance (km) Brightness Sun altitude
Rises 13:22:37 0° 258° (WSW) 4,842 9.8 11.1°
Reaches altitude 10° 13:25:49 10° 261° (W) 3,834 9.3 11.5°
Maximum altitude 13:35:32 71° 345° (NNW) 1,642 7.7 12.8°
Drops below altitude 10° 13:44:54 10° 70° (ENE) 3,700 9.8 13.9°
Sets 13:47:56 0° 73° (ENE) 4,666 10.3 14.3°
